Year,Month,Day,Hour,Minute,Value (Times are PST for temperature in C)
2013,04,25,00,00,7.40
2013,04,25,00,01,7.40
2013,04,25,00,02,7.40
2013,04,25,00,03,7.40
2013,04,25,00,04,7.40
2013,04,25,00,05,7.40
2013,04,25,00,06,7.40
2013,04,25,00,07,7.40
2013,04,25,00,08,7.40
2013,04,25,00,09,7.40
2013,04,25,00,10,7.40
2013,04,25,00,11,7.30
2013,04,25,00,12,7.30
2013,04,25,00,13,7.30
2013,04,25,00,14,7.30
2013,04,25,00,15,7.30
2013,04,25,00,16,7.30
2013,04,25,00,17,7.30
2013,04,25,00,18,7.30
2013,04,25,00,19,7.30
2013,04,25,00,20,7.30
2013,04,25,00,21,7.30
2013,04,25,00,22,7.30
2013,04,25,00,23,7.20
2013,04,25,00,24,7.20
2013,04,25,00,25,7.20
2013,04,25,00,26,7.20
2013,04,25,00,27,7.20
2013,04,25,00,28,7.20
2013,04,25,00,29,7.20
2013,04,25,00,30,7.20
2013,04,25,00,31,7.20
2013,04,25,00,32,7.10
2013,04,25,00,33,7.10
2013,04,25,00,34,7.10
2013,04,25,00,35,7.10
2013,04,25,00,36,7.10
2013,04,25,00,37,7.10
2013,04,25,00,38,7.00
2013,04,25,00,39,7.00
2013,04,25,00,40,7.00
2013,04,25,00,41,7.00
2013,04,25,00,42,6.90
2013,04,25,00,43,6.90
2013,04,25,00,44,6.90
2013,04,25,00,45,6.90
2013,04,25,00,46,6.80
2013,04,25,00,47,6.80
2013,04,25,00,48,6.80
2013,04,25,00,49,6.80
2013,04,25,00,50,6.70
2013,04,25,00,51,6.70
2013,04,25,00,52,6.70
2013,04,25,00,53,6.70
2013,04,25,00,54,6.70
2013,04,25,00,55,6.60
2013,04,25,00,56,6.60
2013,04,25,00,57,6.60
2013,04,25,00,58,6.60
2013,04,25,00,59,6.60
2013,04,25,01,00,6.60
2013,04,25,01,01,6.50
2013,04,25,01,02,6.50
2013,04,25,01,03,6.50
2013,04,25,01,04,6.50
2013,04,25,01,05,6.50
2013,04,25,01,06,6.40
2013,04,25,01,07,6.40
2013,04,25,01,08,6.40
2013,04,25,01,09,6.40
2013,04,25,01,10,6.40
2013,04,25,01,11,6.40
2013,04,25,01,12,6.40
2013,04,25,01,13,6.40
2013,04,25,01,14,6.40
2013,04,25,01,15,6.40
2013,04,25,01,16,6.40
2013,04,25,01,17,6.40
2013,04,25,01,18,6.40
2013,04,25,01,19,6.40
2013,04,25,01,20,6.40
2013,04,25,01,21,6.40
2013,04,25,01,22,6.40
2013,04,25,01,23,6.40
2013,04,25,01,24,6.40
2013,04,25,01,25,6.40
2013,04,25,01,26,6.40
2013,04,25,01,27,6.40
2013,04,25,01,28,6.40
2013,04,25,01,29,6.40
2013,04,25,01,30,6.40
2013,04,25,01,31,6.40
2013,04,25,01,32,6.40
2013,04,25,01,33,6.40
2013,04,25,01,34,6.40
2013,04,25,01,35,6.40
2013,04,25,01,36,6.30
2013,04,25,01,37,6.30
2013,04,25,01,38,6.30
2013,04,25,01,39,6.30
2013,04,25,01,40,6.30
2013,04,25,01,41,6.30
2013,04,25,01,42,6.30
2013,04,25,01,43,6.20
2013,04,25,01,44,6.20
2013,04,25,01,45,6.20
2013,04,25,01,46,6.20
2013,04,25,01,47,6.20
2013,04,25,01,48,6.20
2013,04,25,01,49,6.20
2013,04,25,01,50,6.20
2013,04,25,01,51,6.20
2013,04,25,01,52,6.20
2013,04,25,01,53,6.20
2013,04,25,01,54,6.20
2013,04,25,01,55,6.20
2013,04,25,01,56,6.20
2013,04,25,01,57,6.20
2013,04,25,01,58,6.20
2013,04,25,01,59,6.20
2013,04,25,02,00,6.30
2013,04,25,02,01,6.30
2013,04,25,02,02,6.30
2013,04,25,02,03,6.30
2013,04,25,02,04,6.30
2013,04,25,02,05,6.30
2013,04,25,02,06,6.30
2013,04,25,02,07,6.30
2013,04,25,02,08,6.30
2013,04,25,02,09,6.30
2013,04,25,02,10,6.30
2013,04,25,02,11,6.30
2013,04,25,02,12,6.30
2013,04,25,02,13,6.30
2013,04,25,02,14,6.30
2013,04,25,02,15,6.30
2013,04,25,02,16,6.30
2013,04,25,02,17,6.30
2013,04,25,02,18,6.30
2013,04,25,02,19,6.30
2013,04,25,02,20,6.30
2013,04,25,02,21,6.30
2013,04,25,02,22,6.30
2013,04,25,02,23,6.30
2013,04,25,02,24,6.30
2013,04,25,02,25,6.30
2013,04,25,02,26,6.30
2013,04,25,02,27,6.30
2013,04,25,02,28,6.30
2013,04,25,02,29,6.30
2013,04,25,02,30,6.20
2013,04,25,02,31,6.20
2013,04,25,02,32,6.20
2013,04,25,02,33,6.20
2013,04,25,02,34,6.20
2013,04,25,02,35,6.20
2013,04,25,02,36,6.20
2013,04,25,02,37,6.20
2013,04,25,02,38,6.20
2013,04,25,02,39,6.20
2013,04,25,02,40,6.10
2013,04,25,02,41,6.10
2013,04,25,02,42,6.10
2013,04,25,02,43,6.10
2013,04,25,02,44,6.10
2013,04,25,02,45,6.10
2013,04,25,02,46,6.10
2013,04,25,02,47,6.10
2013,04,25,02,48,6.10
2013,04,25,02,49,6.10
2013,04,25,02,50,6.10
2013,04,25,02,51,6.10
2013,04,25,02,52,6.10
2013,04,25,02,53,6.10
2013,04,25,02,54,6.10
2013,04,25,02,55,6.00
2013,04,25,02,56,6.00
2013,04,25,02,57,6.00
2013,04,25,02,58,6.00
2013,04,25,02,59,6.00
2013,04,25,03,00,6.00
2013,04,25,03,01,6.00
2013,04,25,03,02,6.00
2013,04,25,03,03,5.90
2013,04,25,03,04,5.90
2013,04,25,03,05,5.90
2013,04,25,03,06,5.90
2013,04,25,03,07,5.90
2013,04,25,03,08,5.90
2013,04,25,03,09,5.90
2013,04,25,03,10,5.80
2013,04,25,03,11,5.80
2013,04,25,03,12,5.80
2013,04,25,03,13,5.80
2013,04,25,03,14,5.80
2013,04,25,03,15,5.80
2013,04,25,03,16,5.80
2013,04,25,03,17,5.80
2013,04,25,03,18,5.70
2013,04,25,03,19,5.70
2013,04,25,03,20,5.70
2013,04,25,03,21,5.70
2013,04,25,03,22,5.70
2013,04,25,03,23,5.70
2013,04,25,03,24,5.70
2013,04,25,03,25,5.70
2013,04,25,03,26,5.70
2013,04,25,03,27,5.70
2013,04,25,03,28,5.70
2013,04,25,03,29,5.70
2013,04,25,03,30,5.70
2013,04,25,03,31,5.70
2013,04,25,03,32,5.70
2013,04,25,03,33,5.70
2013,04,25,03,34,5.70
2013,04,25,03,35,5.70
2013,04,25,03,36,5.70
2013,04,25,03,37,5.70
2013,04,25,03,38,5.70
2013,04,25,03,39,5.70
2013,04,25,03,40,5.70
2013,04,25,03,41,5.70
2013,04,25,03,42,5.70
2013,04,25,03,43,5.70
2013,04,25,03,44,5.70
2013,04,25,03,45,5.70
2013,04,25,03,46,5.70
2013,04,25,03,47,5.70
2013,04,25,03,48,5.60
2013,04,25,03,49,5.60
2013,04,25,03,50,5.60
2013,04,25,03,51,5.60
2013,04,25,03,52,5.60
2013,04,25,03,53,5.60
2013,04,25,03,54,5.60
2013,04,25,03,55,5.60
2013,04,25,03,56,5.60
2013,04,25,03,57,5.60
2013,04,25,03,58,5.60
2013,04,25,03,59,5.60
2013,04,25,04,00,5.60
2013,04,25,04,01,5.60
2013,04,25,04,02,5.60
2013,04,25,04,03,5.60
2013,04,25,04,04,5.60
2013,04,25,04,05,5.60
2013,04,25,04,06,5.50
2013,04,25,04,07,5.50
2013,04,25,04,08,5.50
2013,04,25,04,09,5.40
2013,04,25,04,10,5.40
2013,04,25,04,11,5.40
2013,04,25,04,12,5.40
2013,04,25,04,13,5.40
2013,04,25,04,14,5.40
2013,04,25,04,15,5.40
2013,04,25,04,16,5.40
2013,04,25,04,17,5.40
2013,04,25,04,18,5.30
2013,04,25,04,19,5.30
2013,04,25,04,20,5.30
2013,04,25,04,21,5.30
2013,04,25,04,22,5.30
2013,04,25,04,23,5.20
2013,04,25,04,24,5.20
2013,04,25,04,25,5.20
2013,04,25,04,26,5.20
2013,04,25,04,27,5.20
2013,04,25,04,28,5.20
2013,04,25,04,29,5.20
2013,04,25,04,30,5.20
2013,04,25,04,31,5.20
2013,04,25,04,32,5.20
2013,04,25,04,33,5.10
2013,04,25,04,34,5.10
2013,04,25,04,35,5.10
2013,04,25,04,36,5.10
2013,04,25,04,37,5.10
2013,04,25,04,38,5.10
2013,04,25,04,39,5.10
2013,04,25,04,40,5.20
2013,04,25,04,41,5.20
2013,04,25,04,42,5.20
2013,04,25,04,43,5.20
2013,04,25,04,44,5.20
2013,04,25,04,45,5.20
2013,04,25,04,46,5.20
2013,04,25,04,47,5.20
2013,04,25,04,48,5.20
2013,04,25,04,49,5.20
2013,04,25,04,50,5.20
2013,04,25,04,51,5.20
2013,04,25,04,52,5.20
2013,04,25,04,53,5.20
2013,04,25,04,54,5.20
2013,04,25,04,55,5.20
2013,04,25,04,56,5.20
2013,04,25,04,57,5.20
2013,04,25,04,58,5.20
2013,04,25,04,59,5.20
2013,04,25,05,00,5.20
2013,04,25,05,01,5.20
2013,04,25,05,02,5.20
2013,04,25,05,03,5.20
2013,04,25,05,04,5.20
2013,04,25,05,05,5.10
2013,04,25,05,06,5.10
2013,04,25,05,07,5.10
2013,04,25,05,08,5.10
2013,04,25,05,09,5.10
2013,04,25,05,10,5.10
2013,04,25,05,11,5.10
2013,04,25,05,12,5.10
2013,04,25,05,13,5.10
2013,04,25,05,14,5.10
2013,04,25,05,15,5.10
2013,04,25,05,16,5.00
2013,04,25,05,17,5.00
2013,04,25,05,18,4.90
2013,04,25,05,19,4.90
2013,04,25,05,20,4.90
2013,04,25,05,21,4.80
2013,04,25,05,22,4.80
2013,04,25,05,23,4.80
2013,04,25,05,24,4.80
2013,04,25,05,25,4.80
2013,04,25,05,26,4.80
2013,04,25,05,27,4.80
2013,04,25,05,28,4.70
2013,04,25,05,29,4.70
2013,04,25,05,30,4.70
2013,04,25,05,31,4.80
2013,04,25,05,32,4.80
2013,04,25,05,33,4.80
2013,04,25,05,34,4.90
2013,04,25,05,35,4.90
2013,04,25,05,36,4.90
2013,04,25,05,37,4.90
2013,04,25,05,38,4.90
2013,04,25,05,39,4.90
2013,04,25,05,40,4.90
2013,04,25,05,41,4.80
2013,04,25,05,42,4.80
2013,04,25,05,43,4.80
2013,04,25,05,44,4.80
2013,04,25,05,45,4.80
2013,04,25,05,46,4.80
2013,04,25,05,47,4.80
2013,04,25,05,48,4.80
2013,04,25,05,49,4.80
2013,04,25,05,50,4.80
2013,04,25,05,51,4.80
2013,04,25,05,52,4.80
2013,04,25,05,53,4.80
2013,04,25,05,54,4.80
2013,04,25,05,55,4.80
2013,04,25,05,56,4.80
2013,04,25,05,57,4.80
2013,04,25,05,58,4.90
2013,04,25,05,59,4.90
2013,04,25,06,00,4.80
2013,04,25,06,01,4.80
2013,04,25,06,02,4.80
2013,04,25,06,03,4.80
2013,04,25,06,04,4.70
2013,04,25,06,05,4.70
2013,04,25,06,06,4.70
2013,04,25,06,07,4.60
2013,04,25,06,08,4.60
2013,04,25,06,09,4.60
2013,04,25,06,10,4.50
2013,04,25,06,11,4.50
2013,04,25,06,12,4.50
2013,04,25,06,13,4.50
2013,04,25,06,14,4.50
2013,04,25,06,15,4.40
2013,04,25,06,16,4.40
2013,04,25,06,17,4.40
2013,04,25,06,18,4.40
2013,04,25,06,19,4.40
2013,04,25,06,20,4.40
2013,04,25,06,21,4.40
2013,04,25,06,22,4.40
2013,04,25,06,23,4.40
2013,04,25,06,24,4.40
2013,04,25,06,25,4.40
2013,04,25,06,26,4.40
2013,04,25,06,27,4.40
2013,04,25,06,28,4.40
2013,04,25,06,29,4.40
2013,04,25,06,30,4.40
2013,04,25,06,31,4.50
2013,04,25,06,32,4.50
2013,04,25,06,33,4.60
2013,04,25,06,34,4.60
2013,04,25,06,35,4.70
2013,04,25,06,36,4.70
2013,04,25,06,37,4.80
2013,04,25,06,38,4.80
2013,04,25,06,39,4.80
2013,04,25,06,40,4.90
2013,04,25,06,41,4.90
2013,04,25,06,42,5.00
2013,04,25,06,43,5.00
2013,04,25,06,44,5.00
2013,04,25,06,45,5.10
2013,04,25,06,46,5.10
2013,04,25,06,47,5.10
2013,04,25,06,48,5.10
2013,04,25,06,49,5.20
2013,04,25,06,50,5.20
2013,04,25,06,51,5.20
2013,04,25,06,52,5.20
2013,04,25,06,53,5.20
2013,04,25,06,54,5.20
2013,04,25,06,55,5.20
2013,04,25,06,56,5.20
2013,04,25,06,57,5.20
2013,04,25,06,58,5.20
2013,04,25,06,59,5.20
2013,04,25,07,00,5.30
2013,04,25,07,01,5.30
2013,04,25,07,02,5.30
2013,04,25,07,03,5.30
2013,04,25,07,04,5.40
2013,04,25,07,05,5.40
2013,04,25,07,06,5.40
2013,04,25,07,07,5.40
2013,04,25,07,08,5.40
2013,04,25,07,09,5.40
2013,04,25,07,10,5.40
2013,04,25,07,11,5.40
2013,04,25,07,12,5.40
2013,04,25,07,13,5.40
2013,04,25,07,14,5.50
2013,04,25,07,15,5.50
2013,04,25,07,16,5.60
2013,04,25,07,17,5.60
2013,04,25,07,18,5.60
2013,04,25,07,19,5.60
2013,04,25,07,20,5.70
2013,04,25,07,21,5.70
2013,04,25,07,22,5.70
2013,04,25,07,23,5.70
2013,04,25,07,24,5.80
2013,04,25,07,25,5.80
2013,04,25,07,26,5.90
2013,04,25,07,27,5.90
2013,04,25,07,28,6.00
2013,04,25,07,29,6.10
2013,04,25,07,30,6.10
2013,04,25,07,31,6.20
2013,04,25,07,32,6.30
2013,04,25,07,33,6.40
2013,04,25,07,34,6.40
2013,04,25,07,35,6.50
2013,04,25,07,36,6.50
2013,04,25,07,37,6.60
2013,04,25,07,38,6.70
2013,04,25,07,39,6.80
2013,04,25,07,40,6.90
2013,04,25,07,41,7.10
2013,04,25,07,42,7.20
2013,04,25,07,43,7.20
2013,04,25,07,44,7.30
2013,04,25,07,45,7.30
2013,04,25,07,46,7.30
2013,04,25,07,47,7.40
2013,04,25,07,48,7.40
2013,04,25,07,49,7.50
2013,04,25,07,50,7.60
2013,04,25,07,51,7.70
2013,04,25,07,52,7.80
2013,04,25,07,53,8.00
2013,04,25,07,54,8.10
2013,04,25,07,55,8.20
2013,04,25,07,56,8.30
2013,04,25,07,57,8.40
2013,04,25,07,58,8.50
2013,04,25,07,59,8.60
2013,04,25,08,00,8.70
2013,04,25,08,01,8.70
2013,04,25,08,02,8.80
2013,04,25,08,03,8.80
2013,04,25,08,04,8.90
2013,04,25,08,05,9.00
2013,04,25,08,06,9.10
2013,04,25,08,07,9.20
2013,04,25,08,08,9.30
2013,04,25,08,09,9.40
2013,04,25,08,10,9.50
2013,04,25,08,11,9.60
2013,04,25,08,12,9.70
2013,04,25,08,13,9.70
2013,04,25,08,14,9.90
2013,04,25,08,15,10.00
2013,04,25,08,16,10.10
2013,04,25,08,17,10.20
2013,04,25,08,18,10.30
2013,04,25,08,19,10.40
2013,04,25,08,20,10.50
2013,04,25,08,21,10.70
2013,04,25,08,22,10.80
2013,04,25,08,23,10.90
2013,04,25,08,24,11.00
2013,04,25,08,25,11.20
2013,04,25,08,26,11.30
2013,04,25,08,27,11.40
2013,04,25,08,28,11.50
2013,04,25,08,29,11.50
2013,04,25,08,30,11.60
2013,04,25,08,31,11.70
2013,04,25,08,32,11.70
2013,04,25,08,33,11.70
2013,04,25,08,34,11.70
2013,04,25,08,35,11.70
2013,04,25,08,36,11.70
2013,04,25,08,37,11.70
2013,04,25,08,38,11.80
2013,04,25,08,39,11.70
2013,04,25,08,40,11.80
2013,04,25,08,41,11.80
2013,04,25,08,42,11.80
2013,04,25,08,43,11.80
2013,04,25,08,44,11.90
2013,04,25,08,45,11.90
2013,04,25,08,46,12.00
2013,04,25,08,47,12.00
2013,04,25,08,48,12.10
2013,04,25,08,49,12.10
2013,04,25,08,50,12.10
2013,04,25,08,51,12.20
2013,04,25,08,52,12.20
2013,04,25,08,53,12.20
2013,04,25,08,54,12.10
2013,04,25,08,55,12.00
2013,04,25,08,56,11.90
2013,04,25,08,57,11.90
2013,04,25,08,58,11.80
2013,04,25,08,59,11.80
2013,04,25,09,00,11.70
2013,04,25,09,01,11.70
2013,04,25,09,02,11.70
2013,04,25,09,03,11.70
2013,04,25,09,04,11.60
2013,04,25,09,05,11.60
2013,04,25,09,06,11.60
2013,04,25,09,07,11.60
2013,04,25,09,08,11.60
2013,04,25,09,09,11.50
2013,04,25,09,10,11.50
2013,04,25,09,11,11.50
2013,04,25,09,12,11.40
2013,04,25,09,13,11.40
2013,04,25,09,14,11.40
2013,04,25,09,15,11.40
2013,04,25,09,16,11.40
2013,04,25,09,17,11.40
2013,04,25,09,18,11.40
2013,04,25,09,19,11.50
2013,04,25,09,20,11.50
2013,04,25,09,21,11.60
2013,04,25,09,22,11.60
2013,04,25,09,23,11.70
2013,04,25,09,24,11.70
2013,04,25,09,25,11.80
2013,04,25,09,26,12.00
2013,04,25,09,27,12.10
2013,04,25,09,28,12.10
2013,04,25,09,29,12.20
2013,04,25,09,30,12.30
2013,04,25,09,31,12.40
2013,04,25,09,32,12.40
2013,04,25,09,33,12.50
2013,04,25,09,34,12.60
2013,04,25,09,35,12.60
2013,04,25,09,36,12.70
2013,04,25,09,37,12.70
2013,04,25,09,38,12.70
2013,04,25,09,39,12.80
2013,04,25,09,40,12.80
2013,04,25,09,41,12.90
2013,04,25,09,42,13.00
2013,04,25,09,43,13.00
2013,04,25,09,44,13.10
2013,04,25,09,45,13.10
2013,04,25,09,46,13.20
2013,04,25,09,47,13.30
2013,04,25,09,48,13.30
2013,04,25,09,49,13.40
2013,04,25,09,50,13.50
2013,04,25,09,51,13.50
2013,04,25,09,52,13.60
2013,04,25,09,53,13.70
2013,04,25,09,54,13.70
2013,04,25,09,55,13.70
2013,04,25,09,56,13.80
2013,04,25,09,57,13.80
2013,04,25,09,58,13.80
2013,04,25,09,59,13.70
2013,04,25,10,00,13.50
2013,04,25,10,01,13.30
2013,04,25,10,02,13.10
2013,04,25,10,03,13.00
2013,04,25,10,04,12.80
2013,04,25,10,05,12.60
2013,04,25,10,06,12.50
2013,04,25,10,07,12.40
2013,04,25,10,08,12.30
2013,04,25,10,09,12.30
2013,04,25,10,10,12.40
2013,04,25,10,11,12.40
2013,04,25,10,12,12.50
2013,04,25,10,13,12.60
2013,04,25,10,14,12.60
2013,04,25,10,15,12.70
2013,04,25,10,16,12.80
2013,04,25,10,17,12.80
2013,04,25,10,18,12.90
2013,04,25,10,19,13.00
2013,04,25,10,20,13.00
2013,04,25,10,21,13.10
2013,04,25,10,22,13.10
2013,04,25,10,23,13.20
2013,04,25,10,24,13.20
2013,04,25,10,25,13.30
2013,04,25,10,26,13.40
2013,04,25,10,27,13.40
2013,04,25,10,28,13.50
2013,04,25,10,29,13.50
2013,04,25,10,30,13.60
2013,04,25,10,31,13.60
2013,04,25,10,32,13.80
2013,04,25,10,33,13.90
2013,04,25,10,34,14.00
2013,04,25,10,35,14.00
2013,04,25,10,36,14.10
2013,04,25,10,37,14.20
2013,04,25,10,38,14.20
2013,04,25,10,39,14.30
2013,04,25,10,40,14.40
2013,04,25,10,41,14.40
2013,04,25,10,42,14.50
2013,04,25,10,43,14.50
2013,04,25,10,44,14.50
2013,04,25,10,45,14.50
2013,04,25,10,46,14.50
2013,04,25,10,47,14.50
2013,04,25,10,48,14.50
2013,04,25,10,49,14.50
2013,04,25,10,50,14.50
2013,04,25,10,51,14.60
2013,04,25,10,52,14.60
2013,04,25,10,53,14.70
2013,04,25,10,54,14.80
2013,04,25,10,55,14.90
2013,04,25,10,56,14.90
2013,04,25,10,57,14.90
2013,04,25,10,58,14.90
2013,04,25,10,59,14.90
2013,04,25,11,00,14.80
2013,04,25,11,01,14.70
2013,04,25,11,02,14.60
2013,04,25,11,03,14.50
2013,04,25,11,04,14.40
2013,04,25,11,05,14.20
2013,04,25,11,06,14.10
2013,04,25,11,07,14.00
2013,04,25,11,08,14.00
2013,04,25,11,09,14.00
2013,04,25,11,10,14.10
2013,04,25,11,11,14.20
2013,04,25,11,12,14.30
2013,04,25,11,13,14.40
2013,04,25,11,14,14.50
2013,04,25,11,15,14.60
2013,04,25,11,16,14.70
2013,04,25,11,17,14.80
2013,04,25,11,18,14.80
2013,04,25,11,19,14.90
2013,04,25,11,20,14.90
2013,04,25,11,21,14.90
2013,04,25,11,22,14.90
2013,04,25,11,23,14.90
2013,04,25,11,24,14.90
2013,04,25,11,25,14.90
2013,04,25,11,26,14.90
2013,04,25,11,27,14.90
2013,04,25,11,28,14.90
2013,04,25,11,29,14.90
2013,04,25,11,30,15.00
2013,04,25,11,31,15.00
2013,04,25,11,32,15.10
2013,04,25,11,33,15.20
2013,04,25,11,34,15.30
2013,04,25,11,35,15.40
2013,04,25,11,36,15.40
2013,04,25,11,37,15.40
2013,04,25,11,38,15.40
2013,04,25,11,39,15.40
2013,04,25,11,40,15.40
2013,04,25,11,41,15.40
2013,04,25,11,42,15.40
2013,04,25,11,43,15.40
2013,04,25,11,44,15.30
2013,04,25,11,45,15.30
2013,04,25,11,46,15.30
2013,04,25,11,47,15.20
2013,04,25,11,48,15.00
2013,04,25,11,49,14.80
2013,04,25,11,50,14.60
2013,04,25,11,51,14.50
2013,04,25,11,52,14.40
2013,04,25,11,53,14.30
2013,04,25,11,54,14.20
2013,04,25,11,55,14.20
2013,04,25,11,56,14.10
2013,04,25,11,57,13.90
2013,04,25,11,58,13.80
2013,04,25,11,59,13.80
2013,04,25,12,00,13.70
2013,04,25,12,01,13.60
2013,04,25,12,02,13.60
2013,04,25,12,03,13.50
2013,04,25,12,04,13.50
2013,04,25,12,05,13.60
2013,04,25,12,06,13.70
2013,04,25,12,07,13.70
2013,04,25,12,08,13.80
2013,04,25,12,09,13.80
2013,04,25,12,10,13.80
2013,04,25,12,11,13.80
2013,04,25,12,12,13.70
2013,04,25,12,13,13.70
2013,04,25,12,14,13.80
2013,04,25,12,15,13.80
2013,04,25,12,16,13.80
2013,04,25,12,17,13.80
2013,04,25,12,18,13.90
2013,04,25,12,19,13.90
2013,04,25,12,20,14.00
2013,04,25,12,21,14.00
2013,04,25,12,22,14.10
2013,04,25,12,23,14.20
2013,04,25,12,24,14.20
2013,04,25,12,25,14.20
2013,04,25,12,26,14.10
2013,04,25,12,27,14.20
2013,04,25,12,28,14.10
2013,04,25,12,29,14.10
2013,04,25,12,30,14.10
2013,04,25,12,31,14.10
2013,04,25,12,32,14.00
2013,04,25,12,33,14.00
2013,04,25,12,34,13.90
2013,04,25,12,35,13.90
2013,04,25,12,36,13.80
2013,04,25,12,37,13.70
2013,04,25,12,38,13.60
2013,04,25,12,39,13.60
2013,04,25,12,40,13.50
2013,04,25,12,41,13.40
2013,04,25,12,42,13.30
2013,04,25,12,43,13.30
2013,04,25,12,44,13.20
2013,04,25,12,45,13.20
2013,04,25,12,46,13.20
2013,04,25,12,47,13.20
2013,04,25,12,48,13.20
2013,04,25,12,49,13.30
2013,04,25,12,50,13.20
2013,04,25,12,51,13.20
2013,04,25,12,52,13.10
2013,04,25,12,53,13.10
2013,04,25,12,54,13.10
2013,04,25,12,55,13.10
2013,04,25,12,56,13.20
2013,04,25,12,57,13.20
2013,04,25,12,58,13.20
2013,04,25,12,59,13.20
2013,04,25,13,00,13.20
2013,04,25,13,01,13.30
2013,04,25,13,02,13.30
2013,04,25,13,03,13.30
2013,04,25,13,04,13.30
2013,04,25,13,05,13.30
2013,04,25,13,06,13.20
2013,04,25,13,07,13.20
2013,04,25,13,08,13.20
2013,04,25,13,09,13.20
2013,04,25,13,10,13.20
2013,04,25,13,11,13.20
2013,04,25,13,12,13.20
2013,04,25,13,13,13.20
2013,04,25,13,14,13.20
2013,04,25,13,15,13.20
2013,04,25,13,16,13.20
2013,04,25,13,17,13.20
2013,04,25,13,18,13.20
2013,04,25,13,19,13.20
2013,04,25,13,20,13.30
2013,04,25,13,21,13.30
2013,04,25,13,22,13.30
2013,04,25,13,23,13.40
2013,04,25,13,24,13.40
2013,04,25,13,25,13.40
2013,04,25,13,26,13.40
2013,04,25,13,27,13.50
2013,04,25,13,28,13.60
2013,04,25,13,29,13.70
2013,04,25,13,30,13.90
2013,04,25,13,31,14.00
2013,04,25,13,32,14.00
2013,04,25,13,33,14.00
2013,04,25,13,34,13.90
2013,04,25,13,35,13.80
2013,04,25,13,36,13.80
2013,04,25,13,37,13.80
2013,04,25,13,38,13.80
2013,04,25,13,39,13.80
2013,04,25,13,40,13.80
2013,04,25,13,41,13.90
2013,04,25,13,42,14.00
2013,04,25,13,43,14.00
2013,04,25,13,44,14.10
2013,04,25,13,45,14.20
2013,04,25,13,46,14.30
2013,04,25,13,47,14.40
2013,04,25,13,48,14.40
2013,04,25,13,49,14.50
2013,04,25,13,50,14.60
2013,04,25,13,51,14.60
2013,04,25,13,52,14.70
2013,04,25,13,53,14.80
2013,04,25,13,54,14.80
2013,04,25,13,55,14.80
2013,04,25,13,56,14.90
2013,04,25,13,57,15.00
2013,04,25,13,58,15.00
2013,04,25,13,59,15.10
2013,04,25,14,00,15.20
2013,04,25,14,01,15.20
2013,04,25,14,02,15.20
2013,04,25,14,03,15.20
2013,04,25,14,04,15.10
2013,04,25,14,05,15.10
2013,04,25,14,06,15.00
2013,04,25,14,07,15.00
2013,04,25,14,08,15.10
2013,04,25,14,09,15.10
2013,04,25,14,10,15.10
2013,04,25,14,11,15.10
2013,04,25,14,12,15.00
2013,04,25,14,13,15.00
2013,04,25,14,14,14.90
2013,04,25,14,15,14.80
2013,04,25,14,16,14.80
2013,04,25,14,17,14.70
2013,04,25,14,18,14.60
2013,04,25,14,19,14.60
2013,04,25,14,20,14.60
2013,04,25,14,21,14.50
2013,04,25,14,22,14.50
2013,04,25,14,23,14.50
2013,04,25,14,24,14.50
2013,04,25,14,25,14.40
2013,04,25,14,26,14.30
2013,04,25,14,27,14.30
2013,04,25,14,28,14.30
2013,04,25,14,29,14.30
2013,04,25,14,30,14.40
2013,04,25,14,31,14.50
2013,04,25,14,32,14.60
2013,04,25,14,33,14.60
2013,04,25,14,34,14.60
2013,04,25,14,35,14.60
2013,04,25,14,36,14.60
2013,04,25,14,37,14.60
2013,04,25,14,38,14.50
2013,04,25,14,39,14.50
2013,04,25,14,40,14.40
2013,04,25,14,41,14.40
2013,04,25,14,42,14.40
2013,04,25,14,43,14.50
2013,04,25,14,44,14.60
2013,04,25,14,45,14.70
2013,04,25,14,46,14.80
2013,04,25,14,47,14.90
2013,04,25,14,48,14.90
2013,04,25,14,49,15.00
2013,04,25,14,50,14.90
2013,04,25,14,51,14.90
2013,04,25,14,52,14.80
2013,04,25,14,53,14.80
2013,04,25,14,54,14.70
2013,04,25,14,55,14.70
2013,04,25,14,56,14.70
2013,04,25,14,57,14.60
2013,04,25,14,58,14.60
2013,04,25,14,59,14.50
2013,04,25,15,00,14.50
2013,04,25,15,01,14.50
2013,04,25,15,02,14.50
2013,04,25,15,03,14.50
2013,04,25,15,04,14.50
2013,04,25,15,05,14.40
2013,04,25,15,06,14.30
2013,04,25,15,07,14.30
2013,04,25,15,08,14.30
2013,04,25,15,09,14.40
2013,04,25,15,10,14.40
2013,04,25,15,11,14.40
2013,04,25,15,12,14.40
2013,04,25,15,13,14.30
2013,04,25,15,14,14.20
2013,04,25,15,15,14.20
2013,04,25,15,16,14.20
2013,04,25,15,17,14.20
2013,04,25,15,18,14.20
2013,04,25,15,19,14.20
2013,04,25,15,20,14.30
2013,04,25,15,21,14.30
2013,04,25,15,22,14.30
2013,04,25,15,23,14.30
2013,04,25,15,24,14.20
2013,04,25,15,25,14.20
2013,04,25,15,26,14.10
2013,04,25,15,27,14.00
2013,04,25,15,28,14.00
2013,04,25,15,29,14.00
2013,04,25,15,30,14.00
2013,04,25,15,31,14.10
2013,04,25,15,32,14.10
2013,04,25,15,33,14.20
2013,04,25,15,34,14.20
2013,04,25,15,35,14.20
2013,04,25,15,36,14.30
2013,04,25,15,37,14.30
2013,04,25,15,38,14.30
2013,04,25,15,39,14.20
2013,04,25,15,40,14.20
2013,04,25,15,41,14.20
2013,04,25,15,42,14.20
2013,04,25,15,43,14.20
2013,04,25,15,44,14.20
2013,04,25,15,45,14.20
2013,04,25,15,46,14.10
2013,04,25,15,47,14.10
2013,04,25,15,48,14.10
2013,04,25,15,49,14.10
2013,04,25,15,50,14.10
2013,04,25,15,51,14.10
2013,04,25,15,52,14.10
2013,04,25,15,53,14.10
2013,04,25,15,54,14.10
2013,04,25,15,55,14.10
2013,04,25,15,56,14.20
2013,04,25,15,57,14.20
2013,04,25,15,58,14.30
2013,04,25,15,59,14.30
2013,04,25,16,00,14.30
2013,04,25,16,01,14.30
2013,04,25,16,02,14.30
2013,04,25,16,03,14.20
2013,04,25,16,04,14.20
2013,04,25,16,05,14.20
2013,04,25,16,06,14.10
2013,04,25,16,07,14.10
2013,04,25,16,08,14.00
2013,04,25,16,09,14.00
2013,04,25,16,10,14.00
2013,04,25,16,11,14.00
2013,04,25,16,12,14.00
2013,04,25,16,13,14.10
2013,04,25,16,14,14.10
2013,04,25,16,15,14.10
2013,04,25,16,16,14.00
2013,04,25,16,17,14.00
2013,04,25,16,18,13.90
2013,04,25,16,19,13.90
2013,04,25,16,20,13.90
2013,04,25,16,21,13.90
2013,04,25,16,22,13.90
2013,04,25,16,23,14.00
2013,04,25,16,24,14.00
2013,04,25,16,25,14.10
2013,04,25,16,26,14.10
2013,04,25,16,27,14.20
2013,04,25,16,28,14.20
2013,04,25,16,29,14.20
2013,04,25,16,30,14.20
2013,04,25,16,31,14.20
2013,04,25,16,32,14.30
2013,04,25,16,33,14.30
2013,04,25,16,34,14.40
2013,04,25,16,35,14.40
2013,04,25,16,36,14.50
2013,04,25,16,37,14.60
2013,04,25,16,38,14.70
2013,04,25,16,39,14.90
2013,04,25,16,40,15.00
2013,04,25,16,41,15.10
2013,04,25,16,42,15.30
2013,04,25,16,43,15.40
2013,04,25,16,44,15.50
2013,04,25,16,45,15.60
2013,04,25,16,46,15.70
2013,04,25,16,47,15.70
2013,04,25,16,48,15.80
2013,04,25,16,49,15.90
2013,04,25,16,50,16.00
2013,04,25,16,51,16.00
2013,04,25,16,52,16.10
2013,04,25,16,53,16.00
2013,04,25,16,54,15.90
2013,04,25,16,55,15.80
2013,04,25,16,56,15.70
2013,04,25,16,57,15.60
2013,04,25,16,58,15.50
2013,04,25,16,59,15.50
2013,04,25,17,00,15.40
2013,04,25,17,01,15.40
2013,04,25,17,02,15.40
2013,04,25,17,03,15.40
2013,04,25,17,04,15.40
2013,04,25,17,05,15.40
2013,04,25,17,06,15.40
2013,04,25,17,07,15.40
2013,04,25,17,08,15.30
2013,04,25,17,09,15.30
2013,04,25,17,10,15.30
2013,04,25,17,11,15.20
2013,04,25,17,12,15.20
2013,04,25,17,13,15.20
2013,04,25,17,14,15.20
2013,04,25,17,15,15.20
2013,04,25,17,16,15.20
2013,04,25,17,17,15.20
2013,04,25,17,18,15.10
2013,04,25,17,19,15.10
2013,04,25,17,20,15.10
2013,04,25,17,21,15.10
2013,04,25,17,22,15.10
2013,04,25,17,23,15.10
2013,04,25,17,24,15.00
2013,04,25,17,25,14.90
2013,04,25,17,26,14.80
2013,04,25,17,27,14.70
2013,04,25,17,28,14.60
2013,04,25,17,29,14.50
2013,04,25,17,30,14.40
2013,04,25,17,31,14.40
2013,04,25,17,32,14.40
2013,04,25,17,33,14.40
2013,04,25,17,34,14.40
2013,04,25,17,35,14.40
2013,04,25,17,36,14.40
2013,04,25,17,37,14.50
2013,04,25,17,38,14.50
2013,04,25,17,39,14.50
2013,04,25,17,40,14.60